Location: *
(49.4547°N, 7.9131°E)
Time: 14:35:49
(UTC+00:00)

Cosmos 1455 Rocket - Pass Details

Date: 22 September 2019
Orbit: 605 x 630 km, 82.5° (Epoch: 19 October)

Event Time Altitude Azimuth Distance (km) Brightness Sun altitude
Rises 18:05:17 0° 150° (SSE) 2,898 6.1 -7.0°
Reaches altitude 10° 18:07:55 10° 135° (SE) 2,001 5.2 -7.4°
Maximum altitude 18:11:14 21° 86° (E) 1,420 4.3 -7.9°
Drops below altitude 10° 18:14:35 10° 38° (NE) 2,019 5.4 -8.5°
Sets 18:17:15 0° 22° (NNE) 2,934 6.4 -8.9°
